Flag for U.S.A. Weather past 2 weeks in St. Croix Falls, Wisconsin, U.S.A.

Now
83 °F

Sunny.


Feels Like: 88 °F
Forecast: 67 / 83 °F
Wind: 8 mph from South

Location: L O Simenstad Municipal Airport

Current Time: Sep 1, 2015 at 3:50:33 PM

Latest Report: Sep 1, 2015 at 3:15 PM


Visibility: 10 mi

Pressure: 29.93 "Hg

Humidity: 63%

Dew point: 70 °F

Location of St. Croix FallsLocation

Historic Weather in St. Croix Falls — Graph

°F

St. Croix Falls temperature yesterday

Maximum temperature yesterday: 83 °F (at 4:55 PM)
Minimum temperature yesterday: 63 °F (at 2:55 AM)
Average temperature yesterday: 72 °F

Past Weeks' High & Low Weather Summary

 TemperatureHumidityPressure
High85 °F (Sep 1, 2:35 PM)100% (Aug 17, 7:55 PM)30.24 "Hg (Aug 17, 7:55 PM)
Low45 °F (Aug 26, 6:35 AM)45% (Aug 20, 3:55 PM)29.48 "Hg (Aug 19, 5:55 AM)
Average64 °F84%29.95 "Hg
* Reported Aug 17 2:15 PM — Sep 1 2:55 PM, St. Croix Falls, Weather by CustomWeather, © 2015

Note: Actual official high and low records may vary slightly from our data, if they occured in-between our weather recording intervals... More about our weather records

Advertising

St. Croix Falls weather history for previous 24 hours

 ConditionsComfort  
Time TempWeatherWind HumidityBarometerVisibility
2:55 PM
Tue, Sep 1
85 °FSunny.5 mph64%29.94 "Hg10 mi
2:35 PM85 °FSunny.7 mph60%29.93 "Hg10 mi
2:15 PM84 °FSunny.6 mph63%29.93 "Hg10 mi
1:55 PM84 °FSunny.7 mph61%29.93 "Hg10 mi
1:35 PM83 °FSunny.6 mph64%29.93 "Hg10 mi
1:15 PM83 °FSunny.5 mph64%29.93 "Hg10 mi
12:55 PM82 °FSunny.6 mph64%29.94 "Hg10 mi
12:35 PM81 °FSunny.5 mph66%29.94 "Hg10 mi
12:15 PM82 °FSunny.8 mph67%29.94 "Hg10 mi
11:55 AM80 °FSunny.5 mph69%29.95 "Hg10 mi
11:35 AM81 °FSunny.5 mph70%29.95 "Hg10 mi
11:15 AM79 °FSunny.5 mph71%29.95 "Hg10 mi
10:55 AM79 °FSunny.6 mph81%29.95 "Hg10 mi
10:15 AM75 °FSunny.5 mph93%29.96 "Hg10 mi
9:55 AM76 °FSunny.7 mph89%29.95 "Hg10 mi
9:35 AM75 °FSunny.7 mph94%29.94 "Hg10 mi
9:15 AM74 °FSunny.7 mph98%29.95 "Hg10 mi
8:55 AM74 °FSunny.5 mph99%29.95 "Hg10 mi
8:35 AM71 °FScattered clouds.3 mph100%29.96 "Hg7 mi
8:15 AM71 °FScattered clouds.3 mph100%29.96 "Hg7 mi
7:35 AM70 °FSunny.3 mph100%29.96 "Hg7 mi
7:15 AM69 °FFog.5 mph100%29.95 "Hg5 mi
6:55 AM69 °FFog.6 mph100%29.95 "Hg5 mi
6:35 AM69 °FFog.3 mph100%29.95 "Hg5 mi
6:15 AM69 °FClear.3 mph100%29.95 "Hg7 mi
5:55 AM69 °FPassing clouds.3 mph100%29.94 "Hg7 mi
5:35 AM69 °FFog.5 mph100%29.94 "Hg5 mi
5:15 AM70 °FFog.5 mph100%29.94 "Hg5 mi
4:55 AM69 °FFog.3 mph100%29.94 "Hg5 mi
4:35 AM70 °FFog.6 mph100%29.94 "Hg5 mi
4:15 AM70 °FFog.5 mph100%29.94 "Hg5 mi
3:55 AM70 °FFog.3 mph100%29.94 "Hg5 mi
3:35 AM70 °FFog.3 mph100%29.94 "Hg4 mi
3:15 AM70 °FFog.3 mph100%29.94 "Hg5 mi
2:55 AM70 °FFog.3 mph100%29.94 "Hg5 mi
2:35 AM71 °FFog.5 mph100%29.94 "Hg5 mi
2:15 AM71 °FFog.5 mph100%29.94 "Hg5 mi
1:55 AM71 °FFog.5 mph100%29.94 "Hg5 mi
1:35 AM71 °FFog.3 mph100%29.95 "Hg5 mi
1:15 AM71 °FFog.3 mph100%29.95 "Hg5 mi
12:55 AM71 °FPassing clouds.3 mph100%29.95 "Hg7 mi
12:35 AM71 °FFog.3 mph100%29.95 "Hg5 mi
12:15 AM72 °FPassing clouds.3 mph100%29.94 "Hg7 mi
11:55 PM
Mon, Aug 31
72 °FPassing clouds.No wind100%29.94 "Hg7 mi
10:35 PM73 °FPassing clouds.6 mph100%29.94 "Hg7 mi
9:55 PM73 °FPassing clouds.5 mph100%29.94 "Hg7 mi
9:35 PM73 °FMostly cloudy.No wind100%29.94 "Hg10 mi
9:15 PM74 °FPassing clouds.3 mph100%29.94 "Hg10 mi
8:55 PM74 °FClear.5 mph100%29.94 "Hg10 mi
8:35 PM74 °FSunny.3 mph100%29.93 "Hg10 mi
8:15 PM75 °FSunny.5 mph100%29.92 "Hg10 mi
7:55 PM76 °FSunny.6 mph90%29.92 "Hg10 mi
7:35 PM77 °FScattered clouds.6 mph80%29.92 "Hg10 mi
7:15 PM80 °FBroken clouds.6 mph74%29.91 "Hg10 mi
6:55 PM81 °FScattered clouds.7 mph72%29.92 "Hg10 mi
6:35 PM81 °FScattered clouds.8 mph71%29.92 "Hg10 mi
6:15 PM82 °FSunny.8 mph69%29.92 "Hg10 mi
5:55 PM82 °FSunny.10 mph69%29.91 "Hg10 mi
5:15 PM83 °FScattered clouds.10 mph65%29.91 "Hg10 mi
4:55 PM83 °FScattered clouds.10 mph63%29.91 "Hg10 mi
4:15 PM83 °FPartly sunny.9 mph64%29.92 "Hg10 mi
3:55 PM83 °FScattered clouds.14 mph65%29.92 "Hg10 mi
3:35 PM83 °FScattered clouds.10 mph64%29.93 "Hg10 mi
3:15 PM82 °FPartly sunny.12 mph66%29.94 "Hg10 mi
Weather by CustomWeather, © 2015

See weather overviewHow to use our weather pages